Flag Weather past 2 weeks in Grimstad, Norway

Now
40 °F

Quite cool.


Feels Like: 34 °F
Forecast: 37 / 39 °F
Wind: 10 mph from Southeast

Location: Torungen Fyr

Current Time: Nov 29, 2014 at 12:18:34 AM

Latest Report: Nov 28, 2014 at 11:00 PM


Visibility: N/A

Pressure: 30.39 "Hg

Humidity: 73%

Dew point: 32 °F

Location of GrimstadLocation

Historic Weather in Grimstad — Graph

°F

Grimstad temperature yesterday

Maximum temperature yesterday: 45 °F (at 1:00 PM)
Minimum temperature yesterday: 40 °F (at 11:00 PM)
Average temperature yesterday: 43 °F

Past Weeks' High & Low Weather Summary

 TemperatureHumidityPressure
High49 °F (Nov 15, 5:00 AM)98% (Nov 23, 10:00 PM)30.50 "Hg (Nov 23, 10:00 PM)
Low36 °F (Nov 21, 10:00 AM)66% (Nov 28, 9:00 PM)29.72 "Hg (Nov 24, 6:00 AM)
Average43 °F88%30.18 "Hg
* Reported Nov 13 11:00 PM — Nov 28 11:00 PM, Grimstad, Weather by CustomWeather, © 2014

Note: Actual official high and low records may vary slightly from our data, if they occured in-between our weather recording intervals... More about our weather records

Advertising

Grimstad weather history for previous 24 hours

 ConditionsComfort  
Time TempWeatherWind HumidityBarometerVisibility
11:00 PM
Nov 28
40 °FQuite cool.10 mph73%30.39 "HgN/A
10:00 PM41 °FQuite cool.10 mph68%30.38 "HgN/A
9:00 PM41 °FQuite cool.10 mph66%30.37 "HgN/A
8:00 PM42 °FQuite cool.13 mph73%30.36 "HgN/A
7:00 PM41 °FQuite cool.12 mph73%30.36 "HgN/A
6:00 PM42 °FQuite cool.12 mph82%30.35 "HgN/A
5:00 PM43 °FQuite cool.12 mph78%30.34 "HgN/A
4:00 PM43 °FQuite cool.10 mph79%30.34 "HgN/A
3:00 PM44 °FQuite cool.9 mph79%30.32 "HgN/A
2:00 PM44 °FQuite cool.9 mph73%30.32 "HgN/A
1:00 PM45 °FQuite cool.12 mph75%30.32 "HgN/A
12:00 PM44 °FQuite cool.12 mph76%30.32 "HgN/A
11:00 AM44 °FQuite cool.13 mph74%30.31 "HgN/A
10:00 AM43 °FQuite cool.13 mph81%30.30 "HgN/A
9:00 AM44 °FQuite cool.12 mph87%30.28 "HgN/A
8:00 AM44 °FQuite cool.12 mph86%30.26 "HgN/A
7:00 AM44 °FQuite cool.9 mph81%30.26 "HgN/A
6:00 AM44 °FQuite cool.9 mph79%30.25 "HgN/A
5:00 AM44 °FQuite cool.10 mph79%30.24 "HgN/A
4:00 AM44 °FQuite cool.10 mph79%30.23 "HgN/A
3:00 AM44 °FQuite cool.10 mph83%30.22 "HgN/A
2:00 AM44 °FQuite cool.12 mph81%30.21 "HgN/A
1:00 AM43 °FQuite cool.10 mph83%30.20 "HgN/A
12:00 AM43 °FQuite cool.10 mph89%30.20 "HgN/A
Weather by CustomWeather, © 2014

See weather overviewHow to use our weather pages